Miscellaneous Local Product
Issued by NWS Hastings, NE

Home | Current Version | Previous Version | Graphics & Text | Print | Product List | Glossary On
Versions: 1 2 3 4 5 6 7 8 9 10 11 12 13 14 15 16 17 18 19 20 21 22 23 24 25 26 27 28 29 30 31 32 33 34 35 36 37 38 39 40 41 42 43 44 45 46 47 48 49 50
000
AXUS43 KGID 211202
MISGRI

GID CWA HOURLY WEATHER ROUNDUP
NATIONAL WEATHER SERVICE HASTINGS NE
700 AM CDT TUE OCT 21 2014

NOTE: "FAIR" INDICATES FEW OR NO CLOUDS BELOW 12,000 FEET WITH NO
SIGNIFICANT WEATHER AND/OR OBSTRUCTIONS TO VISIBILITY.

...SOUTH CENTRAL NEBRASKA...

CITY           SKY/WX    TMP DP  RH WIND       PRES   REMARKS
GRAND ISLAND   CLEAR     47  41  80 S3        30.08R
HASTINGS       CLEAR     48  40  73 S5        30.07S
KEARNEY        CLEAR     39  36  87 S5        30.08S
ORD            CLEAR     36  35  96 CALM      30.04S
YORK           CLEAR     45  39  81 S6        30.09S
AURORA         CLEAR     40  37  86 S3        30.08S
LEXINGTON      CLEAR     42  39  88 SE5       30.06S
HOLDREGE       CLEAR     47  40  77 CALM      30.07S
HEBRON         CLEAR     38  35  90 CALM      30.10S

...NEBRASKA PANHANDLE...

CITY           SKY/WX    TMP DP  RH WIND       PRES   REMARKS
CHADRON        CLEAR     48  41  76 S6        29.90S
ALLIANCE       CLEAR     42  39  89 SE3       29.97S
SCOTTSBLUFF    CLEAR     46  41  82 E8        29.96S
SIDNEY         CLEAR     44  41  89 S8        30.00F

...WESTERN AND NORTH CENTRAL NEBRASKA...

CITY           SKY/WX    TMP DP  RH WIND       PRES   REMARKS
VALENTINE      CLEAR     50  39  66 S12       29.96S
AINSWORTH      CLEAR     52  40  63 S14       29.99S
ONEILL         CLEAR     46  42  84 SE7       30.03R
BROKEN BOW     CLEAR     40  36  86 CALM      30.04S
IMPERIAL       CLEAR     53  46  77 S6        30.03S
NORTH PLATTE   CLEAR     45  38  76 CALM      30.04S
MCCOOK         CLEAR     43  37  79 CALM      30.06S

...EASTERN NEBRASKA...

CITY           SKY/WX    TMP DP  RH WIND       PRES   REMARKS
NORFOLK        CLEAR     40  35  83 CALM      30.07F
SO SIOUX CITY  CLEAR     37  35  92 SE3       30.11R
TEKAMAH        CLEAR     36  34  92 N3        30.11S
COLUMBUS       CLEAR     37  32  81 CALM      30.10S
ALBION         CLEAR     42  35  78 SE6       30.07S
OMAHA EPPLEY   CLEAR     40  38  93 CALM      30.12R
OFFUTT AFB     CLEAR     36  36 100 E1        30.10S
MILLARD        CLEAR     41  40  96 CALM      30.10S
LINCOLN        CLEAR     37  33  85 N3        30.12R
NEBRASKA CITY  CLEAR     43  35  73 CALM      30.11R
BEATRICE       CLEAR     40  36  87 CALM      30.10S
FALLS CITY     CLEAR     38  36  92 CALM      30.11R

...NORTHERN KANSAS...

CITY           SKY/WX    TMP DP  RH WIND       PRES   REMARKS
GOODLAND       PTCLDY    49  47  93 S12       30.07S
HILL CITY      CLEAR     40  37  89 NW5       30.09S
NORTON         SUNNY     39  34  81 SW3       30.06
PHILLIPSBURG   CLEAR     43  39  87 CALM      30.09S
BELOIT         CLEAR     39  37  93 CALM      30.08S
HAYS           CLEAR     43  36  75 CALM      30.08S
RUSSELL        CLEAR     47  43  86 S7        30.07S
CONCORDIA      CLEAR     41  40  96 CALM      30.09R
SALINA         CLEAR     46  42  86 CALM      30.09S
TOPEKA         CLEAR     42  40  92 CALM      30.12R



USA.gov is the U.S. government's official web portal to all federal, state and local government web resources and services.